Torna al catalogo

STARLINK-3660

AttivoComunicazioniVLEO
NORAD 51977·PAYLOAD·🇺🇸 United States

Lanciato Mar 9, 2022 da Cape Canaveral Space Force Station

Loading…

Prossimi Passaggi (prossime 24 ore)

TLE

AggiornatoSource: CelesTrak SupGP

Epoca: Sep 15, 2026, 02:40 UTC

1 51977C 22025X   26258.11159722 -.00031072  00000+0 -99914-3 0  2588
2 51977  53.1568 235.9807 0001357  90.7110 298.3775 15.31718885    16

Traccia STARLINK-3660 in tempo reale con AllMySat

Download on the App Store